Regional Weather Roundup
Issued by NWS

Home | Current Version | Previous Version | Text Only | Print | Product List | Glossary Off
Versions: 1 2 3 4 5 6 7 8 9 10 11 12 13 14 15 16 17 18 19 20 21 22 23 24 25 26 27 28 29 30 31 32 33 34 35 36 37 38 39 40 41 42 43 44 45 46 47 48 49 50

000
ASUS43 KMKX 231059
RWRWI

WISCONSIN REGIONAL WEATHER ROUNDUP
NATIONAL WEATHER SERVICE MILWAUKEE/SULLIVAN WI
600 AM CDT MON APR 23 2018

NOTE: "FAIR" INDICATES FEW OR NO CLOUDS BELOW 12,000 FEET WITH NO
SIGNIFICANT WEATHER AND/OR OBSTRUCTIONS TO VISIBILITY.

WIZ001-002-006>008-014>016-023>028-231200-
NORTHWEST WISCONSIN

CITY           SKY/WX    TMP DP  RH WIND       PRES   REMARKS
SUPERIOR ARPT  FAIR      28  24  87 S5        30.23S WCI  22
ASHLAND        FAIR      37  22  54 S5        30.25R WCI  33
HAYWARD        FAIR      28  25  88 CALM      30.26R
SIREN          FAIR      31  26  83 CALM      30.25S
CUMBERLAND     FAIR      32  27  80 CALM      30.25S
RICE LAKE      FAIR      32  28  84 CALM      30.28S
CHETEK         FAIR      29  26  87 CALM      30.27S
LADYSMITH      FAIR      33  26  77 CALM      30.29R
EAU CLAIRE     NOT AVBL
MENOMONIE      FAIR      34  30  84 CALM      30.27R
NEW RICHMOND   FAIR      34  30  85 SE3       30.25S
OSCEOLA        FAIR      32  29  90 CALM      30.28S
$$

WIZ003>005-009-010-017-018-231200-
NORTH CENTRAL WISCONSIN

CITY           SKY/WX    TMP DP  RH WIND       PRES   REMARKS
MANITOWISH WTR FAIR      26  25  94 CALM      30.26S
ARBOR VITAE    FAIR      32  24  73 CALM      30.27R
WOODRUFF       FAIR      32  24  73 CALM      30.27R
RHINELANDER    FAIR      29  20  69 CALM      30.28R
EAGLE RIVER    FAIR      26  20  80 CALM      30.27S
LAND O LAKES   FAIR      24  22  90 CALM      30.29S
PHILLIPS       FAIR      28  24  87 CALM      30.27R
TOMAHAWK       FAIR      24  20  85 CALM      30.29R
MEDFORD        FAIR      31  26  82 CALM      30.27R
MERRILL          N/A     25  22  88 CALM      30.30R
$$

WIZ029-030-035-036-043>047-231200-
CENTRAL WISCONSIN

CITY           SKY/WX    TMP DP  RH WIND       PRES   REMARKS
WAUSAU         FAIR      30  25  81 CALM      30.27R
MOSINEE        PTCLDY    39  25  56 CALM      30.28S
MARSHFIELD     FAIR      33  25  72 CALM      30.26S
STEVENS POINT  FAIR      26  23  89 CALM      30.28S
WAUPACA        FAIR      30  27  88 CALM      30.29R
WAUTOMA        FAIR      26  24  92 CALM      30.29R
WISC RAPIDS    FAIR      31  24  75 CALM      30.29R
CAMP DOUGLAS   MOCLDY    26  26  97 CALM      30.27R
$$

WIZ011>013-019>022-031-037>040-048>050-231200-
NORTHEAST WISCONSIN

CITY           SKY/WX    TMP DP  RH WIND       PRES   REMARKS
ANTIGO         FAIR      30  27  86 CALM      30.28S
SHAWANO        FAIR      29  27  90 CALM      30.30R
OCONTO         FAIR      27  26  94 CALM      30.30R
STURGEON BAY   FAIR      38  21  50 CALM      30.31R
GREEN BAY      FAIR      31  27  85 N3        30.29S
MANITOWOC      FAIR      32  26  78 CALM      30.31R
APPLETON       NOT AVBL
CLINTONVILLE   FAIR      28  24  86 CALM      30.29S
OSHKOSH        FAIR      35  27  72 CALM      30.27S
$$

WIZ032>034-041-042-053>061-231200-
SOUTHWEST WISCONSIN

CITY           SKY/WX    TMP DP  RH WIND       PRES   REMARKS
LA CROSSE      FAIR      36  29  75 CALM      30.27R
SPARTA         FAIR      27  25  92 CALM      30.28R
VIROQUA        FAIR      39  28  63 E6        30.25R WCI  35
BOSCOBEL       FAIR      35  31  85 CALM      30.27R
PRAIRIE DU CHI FAIR      39  32  76 CALM      30.25S
PLATTEVILLE    FAIR      40  28  62 E10       30.23R WCI  34
$$

WIZ056-057-062-063-064-067-068-231200-
SOUTH CENTRAL WISCONSIN

CITY           SKY/WX    TMP DP  RH WIND       PRES   REMARKS
REEDSBURG      FAIR      32  32 100 CALM      30.26S
BARABOO/DELLS  FAIR      30  26  83 CALM      30.26S
LONE ROCK      NOT AVBL
MINERAL POINT  FAIR      43  27  52 E9        30.24R
MADISON        MOCLDY    34  27  75 CALM      30.26R
MIDDLETON      FAIR      33  30  90 CALM      30.26S
WATERTOWN      FAIR      33  27  81 CALM      30.26R
MONROE         FAIR      39  27  60 NE8       30.23S WCI  34
JANESVILLE     MOCLDY    39  27  60 NE5       30.24S
$$

WIZ051-052-058>065-066-070>072-231200-
SOUTHEAST WISCONSIN

CITY           SKY/WX    TMP DP  RH WIND       PRES   REMARKS
MILWAUKEE      MOCLDY    40  31  70 CALM      30.27R
WAUKESHA       CLEAR     36  23  60 CALM      30.28R
MILWAUKEE/TIMM FAIR      36  23  60 CALM      30.28R
RACINE         FAIR      38  32  79 N6        30.28R WCI  33
BURLINGTON     FAIR      32  26  77 N3        30.25S
KENOSHA        FAIR      36  29  75 N5        30.25S WCI  32
FOND DU LAC    FAIR      35  25  66 NE3       30.28R
SHEBOYGAN      FAIR      33  26  75 CALM      30.29R
WEST BEND      FAIR      30  28  93 CALM      30.27S
JUNEAU         FAIR      40  21  47 CALM      30.27S
$$

LSZ147-162-231200-
LAKE SUPERIOR

STATION/POSITION TIME  TEMP    WIND        PRES    WAVE
                       AIR SEA DIR/SP/G            HT/PER
                 (UTC) (F)     (DEG/KT/KT) (MB)    (FT/S)
DEVILS ISLAND    1000   43     210/  9/ 10 1023.9F
SAXON HARBOR     1040   45     190/  6/  9 1023.4R
$$

LMZ867-665-643>646-231200-
LAKE MICHIGAN

STATION/POSITION TIME  TEMP    WIND        PRES    WAVE
                       AIR SEA DIR/SP/G            HT/PER
                 (UTC) (F)     (DEG/KT/KT) (MB)    (FT/S)
NORTHPORT PIER   1040   34                 1026.1R
KEWAUNEE LAKESHO 1030   30     320/  2/  2 1025.1S
SHEBOYGAN LAKESH 1000   41     360/  5/  6 1025.9R
PORT WASHINGTON  1040   38     300/  2/  3 1026.1S
MILWAUKEE LAKESH 1030   42     340/  7/  7   N/A
KENOSHA   LAKESH 1000   41                 1024.4
$$

TC  - TEMPERATURE IN CELSIUS
VSB - VISIBILITY IN STATUTE MILES
WCI - WIND CHILL INDEX
HX  - HEAT INDEX





USA.gov is the U.S. government's official web portal to all federal, state and local government web resources and services.